Find Starlink 38332

NORAD ID: 100444 Int'l Des: 2026-193 Owner: SPXS Country: US Constellation: starlink operational

Current View

Loading 3D Globe...

About Starlink 38332

Starlink 38332 (NORAD 100444) is a starlink constellation satellite launched Aug 22, 2026 by SPXS of US. with a mass of 575.00 kg.

Upcoming Passes

Passes for default location (London). Set your location on the main map for personalized predictions.

Altitude History

Loading altitude history...

Two-Line Element Set

1 A0444U 26193M 26255.31604042 -.00638155 00000-0 -52928-2 0 9991
2 A0444 69.9983 96.7696 0004733 252.7368 107.3311 15.71758228 3994
Epoch: Sep 12, 2026 • Age: 9 hours

Current Status

Altitude 361.9 km
Apogee / Perigee N/A
Velocity 7.69 km/s
Sub-Earth Point -18.11°S, 152.84°W
Launch Date Aug 22, 2026
Age 21 days
Type internet

Technical Details

Classification Payload
Mass 575.00 kg
Dry Mass 530.00 kg
Total Mass 575.00 kg
Length 0.30 m
Diameter 4.10 m
Span 29.00 m
Shape Box + pan
Manufacturer SPXS
Bus Type Starlink V2MO
Phase Status In Orbit
Owner/State SPXS/US

Most Searched